Year,Month,Day,Hour,Minute,Value (Times are PST for temperature in C)
2008,12,04,00,00,1.30
2008,12,04,00,01,1.30
2008,12,04,00,02,1.30
2008,12,04,00,03,1.30
2008,12,04,00,04,1.20
2008,12,04,00,05,1.20
2008,12,04,00,07,1.20
2008,12,04,00,09,1.20
2008,12,04,00,10,1.20
2008,12,04,00,11,1.20
2008,12,04,00,12,1.30
2008,12,04,00,14,1.30
2008,12,04,00,15,1.30
2008,12,04,00,17,1.30
2008,12,04,00,19,1.30
2008,12,04,00,20,1.30
2008,12,04,00,21,1.30
2008,12,04,00,22,1.30
2008,12,04,00,23,1.30
2008,12,04,00,24,1.30
2008,12,04,00,25,1.30
2008,12,04,00,26,1.30
2008,12,04,00,27,1.30
2008,12,04,00,28,1.30
2008,12,04,00,29,1.30
2008,12,04,00,30,1.30
2008,12,04,00,31,1.30
2008,12,04,00,32,1.30
2008,12,04,00,33,1.30
2008,12,04,00,34,1.30
2008,12,04,00,35,1.30
2008,12,04,00,36,1.30
2008,12,04,00,37,1.40
2008,12,04,00,39,1.40
2008,12,04,00,40,1.40
2008,12,04,00,41,1.40
2008,12,04,00,42,1.40
2008,12,04,00,43,1.40
2008,12,04,00,44,1.40
2008,12,04,00,45,1.40
2008,12,04,00,46,1.40
2008,12,04,00,47,1.40
2008,12,04,00,49,1.50
2008,12,04,00,50,1.40
2008,12,04,00,51,1.50
2008,12,04,00,52,1.50
2008,12,04,00,53,1.50
2008,12,04,00,54,1.50
2008,12,04,00,55,1.50
2008,12,04,00,56,1.50
2008,12,04,00,57,1.50
2008,12,04,00,58,1.50
2008,12,04,00,59,1.50
2008,12,04,01,00,1.50
2008,12,04,01,01,1.50
2008,12,04,01,02,1.50
2008,12,04,01,03,1.50
2008,12,04,01,04,1.50
2008,12,04,01,06,1.50
2008,12,04,01,08,1.50
2008,12,04,01,09,1.50
2008,12,04,01,11,1.60
2008,12,04,01,12,1.60
2008,12,04,01,13,1.60
2008,12,04,01,14,1.60
2008,12,04,01,15,1.60
2008,12,04,01,17,1.60
2008,12,04,01,18,1.60
2008,12,04,01,19,1.60
2008,12,04,01,21,1.60
2008,12,04,01,22,1.60
2008,12,04,01,23,1.60
2008,12,04,01,25,1.60
2008,12,04,01,26,1.60
2008,12,04,01,27,1.60
2008,12,04,01,28,1.60
2008,12,04,01,29,1.60
2008,12,04,01,30,1.60
2008,12,04,01,31,1.60
2008,12,04,01,32,1.60
2008,12,04,01,33,1.60
2008,12,04,01,34,1.60
2008,12,04,01,35,1.60
2008,12,04,01,36,1.60
2008,12,04,01,37,1.60
2008,12,04,01,38,1.60
2008,12,04,01,39,1.60
2008,12,04,01,40,1.60
2008,12,04,01,42,1.60
2008,12,04,01,43,1.60
2008,12,04,01,44,1.60
2008,12,04,01,45,1.60
2008,12,04,01,46,1.60
2008,12,04,01,47,1.60
2008,12,04,01,48,1.60
2008,12,04,01,49,1.60
2008,12,04,01,50,1.60
2008,12,04,01,51,1.60
2008,12,04,01,52,1.60
2008,12,04,01,53,1.60
2008,12,04,01,54,1.60
2008,12,04,01,56,1.60
2008,12,04,01,57,1.60
2008,12,04,01,58,1.60
2008,12,04,01,59,1.70
2008,12,04,02,00,1.70
2008,12,04,02,01,1.70
2008,12,04,02,02,1.70
2008,12,04,02,03,1.70
2008,12,04,02,04,1.70
2008,12,04,02,05,1.70
2008,12,04,02,08,1.70
2008,12,04,02,09,1.70
2008,12,04,02,10,1.70
2008,12,04,02,11,1.70
2008,12,04,02,12,1.70
2008,12,04,02,14,1.70
2008,12,04,02,15,1.70
2008,12,04,02,16,1.70
2008,12,04,02,17,1.70
2008,12,04,02,18,1.80
2008,12,04,02,19,1.80
2008,12,04,02,20,1.80
2008,12,04,02,21,1.80
2008,12,04,02,22,1.80
2008,12,04,02,23,1.80
2008,12,04,02,24,1.80
2008,12,04,02,25,1.80
2008,12,04,02,26,1.80
2008,12,04,02,28,1.80
2008,12,04,02,29,1.80
2008,12,04,02,30,1.80
2008,12,04,02,31,1.80
2008,12,04,02,32,1.80
2008,12,04,02,33,1.90
2008,12,04,02,34,1.90
2008,12,04,02,35,1.90
2008,12,04,02,37,1.80
2008,12,04,02,38,1.90
2008,12,04,02,39,1.90
2008,12,04,02,40,1.90
2008,12,04,02,41,1.90
2008,12,04,02,42,1.90
2008,12,04,02,43,1.90
2008,12,04,02,44,1.90
2008,12,04,02,45,1.90
2008,12,04,02,46,1.90
2008,12,04,02,47,1.90
2008,12,04,02,49,1.90
2008,12,04,02,50,1.90
2008,12,04,02,51,1.90
2008,12,04,02,52,1.90
2008,12,04,02,53,1.90
2008,12,04,02,54,1.90
2008,12,04,02,56,1.90
2008,12,04,02,57,1.90
2008,12,04,02,58,1.90
2008,12,04,02,59,1.90
2008,12,04,03,00,1.90
2008,12,04,03,01,1.90
2008,12,04,03,02,2.00
2008,12,04,03,03,2.00
2008,12,04,03,04,2.00
2008,12,04,03,05,2.00
2008,12,04,03,06,2.10
2008,12,04,03,07,2.10
2008,12,04,03,08,2.10
2008,12,04,03,09,2.10
2008,12,04,03,10,2.10
2008,12,04,03,11,2.10
2008,12,04,03,12,2.10
2008,12,04,03,13,2.10
2008,12,04,03,14,2.10
2008,12,04,03,15,2.10
2008,12,04,03,16,2.10
2008,12,04,03,17,2.10
2008,12,04,03,18,2.10
2008,12,04,03,19,2.10
2008,12,04,03,20,2.10
2008,12,04,03,22,2.10
2008,12,04,03,23,2.20
2008,12,04,03,24,2.20
2008,12,04,03,25,2.20
2008,12,04,03,26,2.20
2008,12,04,03,27,2.20
2008,12,04,03,28,2.20
2008,12,04,03,29,2.20
2008,12,04,03,30,2.20
2008,12,04,03,31,2.20
2008,12,04,03,32,2.20
2008,12,04,03,33,2.20
2008,12,04,03,34,2.30
2008,12,04,03,35,2.30
2008,12,04,03,36,2.30
2008,12,04,03,37,2.30
2008,12,04,03,38,2.30
2008,12,04,03,39,2.30
2008,12,04,03,40,2.30
2008,12,04,03,41,2.40
2008,12,04,03,42,2.40
2008,12,04,03,43,2.40
2008,12,04,03,44,2.40
2008,12,04,03,45,2.40
2008,12,04,03,46,2.40
2008,12,04,03,47,2.50
2008,12,04,03,48,2.50
2008,12,04,03,49,2.50
2008,12,04,03,50,2.50
2008,12,04,03,51,2.60
2008,12,04,03,52,2.60
2008,12,04,03,53,2.60
2008,12,04,03,54,2.60
2008,12,04,03,55,2.60
2008,12,04,03,56,2.60
2008,12,04,03,57,2.60
2008,12,04,03,58,2.60
2008,12,04,03,59,2.60
2008,12,04,04,00,2.60
2008,12,04,04,01,2.60
2008,12,04,04,02,2.70
2008,12,04,04,03,2.70
2008,12,04,04,04,2.70
2008,12,04,04,05,2.70
2008,12,04,04,06,2.70
2008,12,04,04,07,2.70
2008,12,04,04,08,2.70
2008,12,04,04,09,2.70
2008,12,04,04,10,2.70
2008,12,04,04,11,2.70
2008,12,04,04,12,2.70
2008,12,04,04,13,2.70
2008,12,04,04,14,2.70
2008,12,04,04,15,2.70
2008,12,04,04,16,2.70
2008,12,04,04,17,2.70
2008,12,04,04,18,2.70
2008,12,04,04,19,2.70
2008,12,04,04,20,2.70
2008,12,04,04,21,2.70
2008,12,04,04,22,2.80
2008,12,04,04,23,2.70
2008,12,04,04,24,2.70
2008,12,04,04,25,2.70
2008,12,04,04,26,2.70
2008,12,04,04,27,2.80
2008,12,04,04,28,2.80
2008,12,04,04,29,2.80
2008,12,04,04,30,2.80
2008,12,04,04,31,2.80
2008,12,04,04,32,2.80
2008,12,04,04,33,2.80
2008,12,04,04,34,2.80
2008,12,04,04,35,2.80
2008,12,04,04,36,2.80
2008,12,04,04,37,2.80
2008,12,04,04,38,2.80
2008,12,04,04,39,2.80
2008,12,04,04,40,2.80
2008,12,04,04,41,2.80
2008,12,04,04,42,2.80
2008,12,04,04,43,2.80
2008,12,04,04,44,2.70
2008,12,04,04,45,2.70
2008,12,04,04,46,2.70
2008,12,04,04,47,2.70
2008,12,04,04,48,2.70
2008,12,04,04,49,2.70
2008,12,04,04,50,2.70
2008,12,04,04,51,2.70
2008,12,04,04,52,2.70
2008,12,04,04,53,2.70
2008,12,04,04,54,2.70
2008,12,04,04,55,2.70
2008,12,04,04,56,2.70
2008,12,04,04,57,2.70
2008,12,04,04,58,2.70
2008,12,04,04,59,2.70
2008,12,04,05,00,2.70
2008,12,04,05,01,2.70
2008,12,04,05,02,2.70
2008,12,04,05,03,2.70
2008,12,04,05,04,2.70
2008,12,04,05,05,2.70
2008,12,04,05,06,2.70
2008,12,04,05,07,2.70
2008,12,04,05,08,2.70
2008,12,04,05,09,2.70
2008,12,04,05,10,2.70
2008,12,04,05,11,2.70
2008,12,04,05,12,2.70
2008,12,04,05,13,2.70
2008,12,04,05,14,2.70
2008,12,04,05,15,2.70
2008,12,04,05,16,2.70
2008,12,04,05,17,2.70
2008,12,04,05,18,2.70
2008,12,04,05,19,2.70
2008,12,04,05,20,2.70
2008,12,04,05,21,2.70
2008,12,04,05,23,2.70
2008,12,04,05,24,2.70
2008,12,04,05,25,2.70
2008,12,04,05,26,2.70
2008,12,04,05,27,2.70
2008,12,04,05,28,2.60
2008,12,04,05,29,2.60
2008,12,04,05,30,2.60
2008,12,04,05,31,2.60
2008,12,04,05,32,2.60
2008,12,04,05,34,2.60
2008,12,04,05,35,2.60
2008,12,04,05,36,2.60
2008,12,04,05,37,2.60
2008,12,04,05,38,2.60
2008,12,04,05,39,2.70
2008,12,04,05,40,2.70
2008,12,04,05,41,2.60
2008,12,04,05,42,2.60
2008,12,04,05,43,2.60
2008,12,04,05,44,2.70
2008,12,04,05,45,2.70
2008,12,04,05,46,2.60
2008,12,04,05,47,2.70
2008,12,04,05,48,2.70
2008,12,04,05,49,2.70
2008,12,04,05,50,2.70
2008,12,04,05,51,2.70
2008,12,04,05,52,2.70
2008,12,04,05,53,2.70
2008,12,04,05,54,2.70
2008,12,04,05,55,2.70
2008,12,04,05,56,2.70
2008,12,04,05,57,2.70
2008,12,04,05,58,2.70
2008,12,04,05,59,2.70
2008,12,04,06,00,2.70
2008,12,04,06,01,2.70
2008,12,04,06,02,2.70
2008,12,04,06,03,2.70
2008,12,04,06,04,2.70
2008,12,04,06,05,2.80
2008,12,04,06,06,2.80
2008,12,04,06,07,2.80
2008,12,04,06,08,2.80
2008,12,04,06,09,2.80
2008,12,04,06,10,2.80
2008,12,04,06,11,2.80
2008,12,04,06,12,2.80
2008,12,04,06,13,2.80
2008,12,04,06,14,2.80
2008,12,04,06,15,2.80
2008,12,04,06,16,2.80
2008,12,04,06,17,2.80
2008,12,04,06,18,2.80
2008,12,04,06,19,2.80
2008,12,04,06,20,2.80
2008,12,04,06,21,2.80
2008,12,04,06,22,2.80
2008,12,04,06,23,2.80
2008,12,04,06,24,2.80
2008,12,04,06,25,2.90
2008,12,04,06,26,2.90
2008,12,04,06,27,2.90
2008,12,04,06,28,2.90
2008,12,04,06,29,2.90
2008,12,04,06,30,2.90
2008,12,04,06,31,2.90
2008,12,04,06,32,2.90
2008,12,04,06,33,2.90
2008,12,04,06,35,3.00
2008,12,04,06,36,3.00
2008,12,04,06,37,3.00
2008,12,04,06,38,3.00
2008,12,04,06,39,3.00
2008,12,04,06,40,3.00
2008,12,04,06,41,3.10
2008,12,04,06,42,3.10
2008,12,04,06,43,3.10
2008,12,04,06,44,3.10
2008,12,04,06,45,3.10
2008,12,04,06,46,3.10
2008,12,04,06,47,3.10
2008,12,04,06,48,3.10
2008,12,04,06,49,3.10
2008,12,04,06,50,3.10
2008,12,04,06,51,3.10
2008,12,04,06,52,3.10
2008,12,04,06,53,3.10
2008,12,04,06,54,3.10
2008,12,04,06,55,3.10
2008,12,04,06,56,3.10
2008,12,04,06,58,3.10
2008,12,04,06,59,3.10
2008,12,04,07,00,3.10
2008,12,04,07,01,3.10
2008,12,04,07,02,3.10
2008,12,04,07,03,3.10
2008,12,04,07,04,3.10
2008,12,04,07,05,3.10
2008,12,04,07,06,3.10
2008,12,04,07,07,3.10
2008,12,04,07,08,3.10
2008,12,04,07,09,3.10
2008,12,04,07,10,3.00
2008,12,04,07,11,3.00
2008,12,04,07,12,3.10
2008,12,04,07,13,3.10
2008,12,04,07,14,3.00
2008,12,04,07,15,3.10
2008,12,04,07,16,3.00
2008,12,04,07,17,3.10
2008,12,04,07,18,3.10
2008,12,04,07,19,3.10
2008,12,04,07,20,3.10
2008,12,04,07,21,3.10
2008,12,04,07,22,3.10
2008,12,04,07,23,3.10
2008,12,04,07,24,3.10
2008,12,04,07,25,3.10
2008,12,04,07,26,3.10
2008,12,04,07,27,3.10
2008,12,04,07,28,3.10
2008,12,04,07,29,3.10
2008,12,04,07,30,3.10
2008,12,04,07,31,3.10
2008,12,04,07,32,3.10
2008,12,04,07,33,3.10
2008,12,04,07,34,3.10
2008,12,04,07,35,3.10
2008,12,04,07,36,3.10
2008,12,04,07,37,3.10
2008,12,04,07,38,3.10
2008,12,04,07,39,3.10
2008,12,04,07,40,3.10
2008,12,04,07,41,3.10
2008,12,04,07,42,3.10
2008,12,04,07,43,3.10
2008,12,04,07,44,3.10
2008,12,04,07,45,3.10
2008,12,04,07,46,3.10
2008,12,04,07,47,3.10
2008,12,04,07,48,3.20
2008,12,04,07,49,3.20
2008,12,04,07,50,3.20
2008,12,04,07,51,3.20
2008,12,04,07,52,3.20
2008,12,04,07,53,3.20
2008,12,04,07,54,3.20
2008,12,04,07,55,3.20
2008,12,04,07,56,3.20
2008,12,04,07,57,3.20
2008,12,04,07,58,3.20
2008,12,04,07,59,3.20
2008,12,04,08,00,3.10
2008,12,04,08,01,3.10
2008,12,04,08,02,3.10
2008,12,04,08,03,3.10
2008,12,04,08,04,3.10
2008,12,04,08,05,3.10
2008,12,04,08,06,3.10
2008,12,04,08,07,3.10
2008,12,04,08,08,3.10
2008,12,04,08,09,3.10
2008,12,04,08,10,3.10
2008,12,04,08,11,3.10
2008,12,04,08,12,3.10
2008,12,04,08,13,3.10
2008,12,04,08,14,3.10
2008,12,04,08,15,3.10
2008,12,04,08,16,3.10
2008,12,04,08,17,3.10
2008,12,04,08,18,3.10
2008,12,04,08,19,3.10
2008,12,04,08,20,3.10
2008,12,04,08,21,3.10
2008,12,04,08,22,3.10
2008,12,04,08,23,3.10
2008,12,04,08,24,3.10
2008,12,04,08,25,3.10
2008,12,04,08,26,3.10
2008,12,04,08,27,3.10
2008,12,04,08,28,3.10
2008,12,04,08,29,3.10
2008,12,04,08,30,3.10
2008,12,04,08,31,3.10
2008,12,04,08,32,3.10
2008,12,04,08,33,3.10
2008,12,04,08,34,3.10
2008,12,04,08,35,3.10
2008,12,04,08,36,3.10
2008,12,04,08,37,3.10
2008,12,04,08,38,3.10
2008,12,04,08,39,3.10
2008,12,04,08,40,3.10
2008,12,04,08,41,3.10
2008,12,04,08,42,3.10
2008,12,04,08,43,3.10
2008,12,04,08,44,3.10
2008,12,04,08,45,3.10
2008,12,04,08,46,3.10
2008,12,04,08,47,3.10
2008,12,04,08,48,3.10
2008,12,04,08,49,3.10
2008,12,04,08,50,3.10
2008,12,04,08,51,3.10
2008,12,04,08,52,3.10
2008,12,04,08,53,3.10
2008,12,04,08,54,3.10
2008,12,04,08,55,3.10
2008,12,04,08,56,3.10
2008,12,04,08,57,3.10
2008,12,04,08,59,3.10
2008,12,04,09,00,3.10
2008,12,04,09,01,3.10
2008,12,04,09,02,3.10
2008,12,04,09,03,3.10
2008,12,04,09,04,3.10
2008,12,04,09,05,3.10
2008,12,04,09,06,3.10
2008,12,04,09,07,3.10
2008,12,04,09,08,3.20
2008,12,04,09,09,3.20
2008,12,04,09,10,3.20
2008,12,04,09,11,3.20
2008,12,04,09,12,3.20
2008,12,04,09,13,3.20
2008,12,04,09,14,3.20
2008,12,04,09,15,3.20
2008,12,04,09,16,3.20
2008,12,04,09,17,3.20
2008,12,04,09,18,3.20
2008,12,04,09,19,3.20
2008,12,04,09,20,3.20
2008,12,04,09,21,3.20
2008,12,04,09,22,3.20
2008,12,04,09,23,3.20
2008,12,04,09,25,3.20
2008,12,04,09,26,3.20
2008,12,04,09,27,3.20
2008,12,04,09,28,3.20
2008,12,04,09,29,3.20
2008,12,04,09,30,3.20
2008,12,04,09,31,3.20
2008,12,04,09,32,3.30
2008,12,04,09,33,3.30
2008,12,04,09,34,3.20
2008,12,04,09,35,3.30
2008,12,04,09,36,3.30
2008,12,04,09,37,3.30
2008,12,04,09,38,3.30
2008,12,04,09,39,3.30
2008,12,04,09,40,3.20
2008,12,04,09,41,3.20
2008,12,04,09,42,3.20
2008,12,04,09,43,3.20
2008,12,04,09,44,3.20
2008,12,04,09,45,3.20
2008,12,04,09,46,3.30
2008,12,04,09,47,3.30
2008,12,04,09,48,3.30
2008,12,04,09,49,3.30
2008,12,04,09,50,3.30
2008,12,04,09,51,3.30
2008,12,04,09,52,3.30
2008,12,04,09,53,3.30
2008,12,04,09,54,3.30
2008,12,04,09,55,3.30
2008,12,04,09,56,3.30
2008,12,04,09,57,3.30
2008,12,04,09,58,3.40
2008,12,04,09,59,3.40
2008,12,04,10,00,3.40
2008,12,04,10,01,3.40
2008,12,04,10,02,3.40
2008,12,04,10,03,3.40
2008,12,04,10,04,3.40
2008,12,04,10,05,3.40
2008,12,04,10,06,3.40
2008,12,04,10,07,3.40
2008,12,04,10,08,3.50
2008,12,04,10,09,3.50
2008,12,04,10,10,3.50
2008,12,04,10,11,3.50
2008,12,04,10,12,3.50
2008,12,04,10,13,3.50
2008,12,04,10,14,3.50
2008,12,04,10,15,3.50
2008,12,04,10,16,3.50
2008,12,04,10,17,3.50
2008,12,04,10,18,3.50
2008,12,04,10,20,3.50
2008,12,04,10,21,3.50
2008,12,04,10,22,3.60
2008,12,04,10,23,3.60
2008,12,04,10,24,3.60
2008,12,04,10,25,3.60
2008,12,04,10,26,3.60
2008,12,04,10,27,3.70
2008,12,04,10,28,3.70
2008,12,04,10,29,3.70
2008,12,04,10,30,3.70
2008,12,04,10,31,3.70
2008,12,04,10,32,3.70
2008,12,04,10,33,3.70
2008,12,04,10,34,3.70
2008,12,04,10,35,3.70
2008,12,04,10,36,3.70
2008,12,04,10,37,3.70
2008,12,04,10,38,3.60
2008,12,04,10,39,3.60
2008,12,04,10,40,3.70
2008,12,04,10,41,3.70
2008,12,04,10,42,3.70
2008,12,04,10,43,3.70
2008,12,04,10,44,3.70
2008,12,04,10,45,3.70
2008,12,04,10,46,3.70
2008,12,04,10,47,3.70
2008,12,04,10,48,3.70
2008,12,04,10,49,3.70
2008,12,04,10,50,3.70
2008,12,04,10,51,3.70
2008,12,04,10,52,3.70
2008,12,04,10,53,3.70
2008,12,04,10,54,3.70
2008,12,04,10,55,3.70
2008,12,04,10,56,3.70
2008,12,04,10,57,3.70
2008,12,04,10,58,3.70
2008,12,04,10,59,3.70
2008,12,04,11,00,3.70
2008,12,04,11,01,3.70
2008,12,04,11,02,3.70
2008,12,04,11,03,3.70
2008,12,04,11,04,3.70
2008,12,04,11,05,3.70
2008,12,04,11,06,3.70
2008,12,04,11,07,3.70
2008,12,04,11,08,3.70
2008,12,04,11,09,3.70
2008,12,04,11,10,3.70
2008,12,04,11,11,3.70
2008,12,04,11,12,3.70
2008,12,04,11,13,3.70
2008,12,04,11,14,3.70
2008,12,04,11,15,3.70
2008,12,04,11,16,3.70
2008,12,04,11,17,3.80
2008,12,04,11,18,3.80
2008,12,04,11,19,3.80
2008,12,04,11,20,3.80
2008,12,04,11,21,3.80
2008,12,04,11,22,3.80
2008,12,04,11,23,3.80
2008,12,04,11,24,3.80
2008,12,04,11,26,3.90
2008,12,04,11,27,3.90
2008,12,04,11,28,3.90
2008,12,04,11,29,3.90
2008,12,04,11,30,3.90
2008,12,04,11,31,3.90
2008,12,04,11,32,3.90
2008,12,04,11,33,3.90
2008,12,04,11,34,4.00
2008,12,04,11,35,4.00
2008,12,04,11,36,4.00
2008,12,04,11,37,4.10
2008,12,04,11,38,4.10
2008,12,04,11,39,4.10
2008,12,04,11,40,4.20
2008,12,04,11,41,4.20
2008,12,04,11,42,4.20
2008,12,04,11,43,4.20
2008,12,04,11,44,4.30
2008,12,04,11,45,4.30
2008,12,04,11,46,4.30
2008,12,04,11,47,4.30
2008,12,04,11,48,4.30
2008,12,04,11,49,4.30
2008,12,04,11,50,4.30
2008,12,04,11,51,4.30
2008,12,04,11,52,4.30
2008,12,04,11,53,4.30
2008,12,04,11,54,4.40
2008,12,04,11,55,4.40
2008,12,04,11,56,4.40
2008,12,04,11,57,4.40
2008,12,04,11,58,4.50
2008,12,04,11,59,4.50
2008,12,04,12,01,4.50
2008,12,04,12,02,4.50
2008,12,04,12,03,4.50
2008,12,04,12,04,4.60
2008,12,04,12,05,4.60
2008,12,04,12,06,4.60
2008,12,04,12,07,4.60
2008,12,04,12,08,4.60
2008,12,04,12,09,4.70
2008,12,04,12,10,4.70
2008,12,04,12,11,4.70
2008,12,04,12,12,4.80
2008,12,04,12,13,4.80
2008,12,04,12,14,4.80
2008,12,04,12,15,4.80
2008,12,04,12,16,4.80
2008,12,04,12,17,4.90
2008,12,04,12,18,4.90
2008,12,04,12,19,5.00
2008,12,04,12,20,5.00
2008,12,04,12,21,5.00
2008,12,04,12,22,5.10
2008,12,04,12,23,5.10
2008,12,04,12,24,5.10
2008,12,04,12,25,5.10
2008,12,04,12,26,5.10
2008,12,04,12,27,5.20
2008,12,04,12,28,5.20
2008,12,04,12,29,5.20
2008,12,04,12,30,5.20
2008,12,04,12,31,5.20
2008,12,04,12,32,5.30
2008,12,04,12,33,5.20
2008,12,04,12,34,5.20
2008,12,04,12,35,5.20
2008,12,04,12,36,5.10
2008,12,04,12,37,5.10
2008,12,04,12,38,5.10
2008,12,04,12,39,5.10
2008,12,04,12,40,5.10
2008,12,04,12,41,5.00
2008,12,04,12,42,5.00
2008,12,04,12,43,5.00
2008,12,04,12,44,5.00
2008,12,04,12,45,5.00
2008,12,04,12,46,5.00
2008,12,04,12,47,5.10
2008,12,04,12,48,5.10
2008,12,04,12,49,5.10
2008,12,04,12,50,5.10
2008,12,04,12,51,5.10
2008,12,04,12,52,5.10
2008,12,04,12,53,5.10
2008,12,04,12,54,5.10
2008,12,04,12,55,5.10
2008,12,04,12,56,5.10
2008,12,04,12,57,5.10
2008,12,04,12,58,5.10
2008,12,04,12,59,5.10
2008,12,04,13,00,5.10
2008,12,04,13,01,5.10
2008,12,04,13,02,5.10
2008,12,04,13,03,5.10
2008,12,04,13,04,5.10
2008,12,04,13,05,5.10
2008,12,04,13,06,5.10
2008,12,04,13,07,5.10
2008,12,04,13,08,5.20
2008,12,04,13,09,5.20
2008,12,04,13,10,5.20
2008,12,04,13,11,5.20
2008,12,04,13,12,5.20
2008,12,04,13,13,5.20
2008,12,04,13,14,5.30
2008,12,04,13,15,5.30
2008,12,04,13,16,5.30
2008,12,04,13,17,5.30
2008,12,04,13,18,5.30
2008,12,04,13,19,5.30
2008,12,04,13,20,5.30
2008,12,04,13,21,5.30
2008,12,04,13,22,5.30
2008,12,04,13,23,5.30
2008,12,04,13,24,5.30
2008,12,04,13,25,5.20
2008,12,04,13,27,5.20
2008,12,04,13,28,5.20
2008,12,04,13,29,5.20
2008,12,04,13,30,5.20
2008,12,04,13,31,5.20
2008,12,04,13,32,5.20
2008,12,04,13,33,5.20
2008,12,04,13,34,5.20
2008,12,04,13,35,5.20
2008,12,04,13,36,5.20
2008,12,04,13,37,5.20
2008,12,04,13,38,5.20
2008,12,04,13,39,5.20
2008,12,04,13,40,5.20
2008,12,04,13,41,5.20
2008,12,04,13,42,5.20
2008,12,04,13,43,5.20
2008,12,04,13,44,5.20
2008,12,04,13,45,5.30
2008,12,04,13,46,5.30
2008,12,04,13,47,5.30
2008,12,04,13,48,5.30
2008,12,04,13,49,5.30
2008,12,04,13,50,5.30
2008,12,04,13,51,5.30
2008,12,04,13,52,5.40
2008,12,04,13,53,5.40
2008,12,04,13,54,5.40
2008,12,04,13,55,5.40
2008,12,04,13,56,5.40
2008,12,04,13,57,5.40
2008,12,04,13,58,5.40
2008,12,04,13,59,5.40
2008,12,04,14,00,5.40
2008,12,04,14,01,5.50
2008,12,04,14,02,5.50
2008,12,04,14,03,5.50
2008,12,04,14,04,5.50
2008,12,04,14,05,5.50
2008,12,04,14,06,5.50
2008,12,04,14,07,5.50
2008,12,04,14,08,5.40
2008,12,04,14,09,5.40
2008,12,04,14,10,5.30
2008,12,04,14,11,5.30
2008,12,04,14,12,5.30
2008,12,04,14,13,5.30
2008,12,04,14,14,5.30
2008,12,04,14,15,5.20
2008,12,04,14,16,5.20
2008,12,04,14,17,5.20
2008,12,04,14,18,5.20
2008,12,04,14,19,5.20
2008,12,04,14,20,5.20
2008,12,04,14,21,5.20
2008,12,04,14,22,5.20
2008,12,04,14,23,5.10
2008,12,04,14,24,5.10
2008,12,04,14,25,5.10
2008,12,04,14,26,5.10
2008,12,04,14,27,5.10
2008,12,04,14,28,5.10
2008,12,04,14,29,5.10
2008,12,04,14,30,5.10
2008,12,04,14,31,5.10
2008,12,04,14,32,5.10
2008,12,04,14,33,5.00
2008,12,04,14,34,5.10
2008,12,04,14,35,5.00
2008,12,04,14,36,5.00
2008,12,04,14,37,5.00
2008,12,04,14,38,5.00
2008,12,04,14,39,4.90
2008,12,04,14,40,4.90
2008,12,04,14,41,4.90
2008,12,04,14,42,4.90
2008,12,04,14,43,4.90
2008,12,04,14,44,4.90
2008,12,04,14,45,4.80
2008,12,04,14,46,4.80
2008,12,04,14,47,4.80
2008,12,04,14,48,4.80
2008,12,04,14,49,4.80
2008,12,04,14,50,4.80
2008,12,04,14,51,4.80
2008,12,04,14,52,4.80
2008,12,04,14,53,4.80
2008,12,04,14,54,4.80
2008,12,04,14,55,4.80
2008,12,04,14,56,4.80
2008,12,04,14,57,4.80
2008,12,04,14,58,4.80
2008,12,04,14,59,4.80
2008,12,04,15,00,4.80
2008,12,04,15,01,4.70
2008,12,04,15,02,4.70
2008,12,04,15,03,4.70
2008,12,04,15,04,4.70
2008,12,04,15,05,4.70
2008,12,04,15,06,4.70
2008,12,04,15,07,4.70
2008,12,04,15,08,4.70
2008,12,04,15,09,4.70
2008,12,04,15,10,4.70
2008,12,04,15,11,4.70
2008,12,04,15,12,4.70
2008,12,04,15,13,4.70
2008,12,04,15,14,4.70
2008,12,04,15,15,4.70
2008,12,04,15,16,4.70
2008,12,04,15,17,4.70
2008,12,04,15,18,4.70
2008,12,04,15,19,4.70
2008,12,04,15,20,4.70
2008,12,04,15,21,4.70
2008,12,04,15,22,4.70
2008,12,04,15,23,4.70
2008,12,04,15,24,4.70
2008,12,04,15,25,4.70
2008,12,04,15,26,4.70
2008,12,04,15,28,4.60
2008,12,04,15,29,4.60
2008,12,04,15,30,4.60
2008,12,04,15,31,4.60
2008,12,04,15,32,4.60
2008,12,04,15,33,4.60
2008,12,04,15,34,4.60
2008,12,04,15,35,4.60
2008,12,04,15,36,4.60
2008,12,04,15,37,4.60
2008,12,04,15,38,4.60
2008,12,04,15,39,4.60
2008,12,04,15,40,4.60
2008,12,04,15,41,4.60
2008,12,04,15,42,4.60
2008,12,04,15,43,4.60
2008,12,04,15,44,4.60
2008,12,04,15,45,4.60
2008,12,04,15,46,4.60
2008,12,04,15,47,4.60
2008,12,04,15,48,4.50
2008,12,04,15,49,4.50
2008,12,04,15,50,4.50
2008,12,04,15,51,4.40
2008,12,04,15,52,4.40
2008,12,04,15,53,4.40
2008,12,04,15,54,4.40
2008,12,04,15,55,4.40
2008,12,04,15,56,4.40
2008,12,04,15,57,4.40
2008,12,04,15,58,4.40
2008,12,04,15,59,4.40
2008,12,04,16,00,4.40
2008,12,04,16,01,4.40
2008,12,04,16,02,4.40
2008,12,04,16,03,4.40
2008,12,04,16,04,4.40
2008,12,04,16,05,4.40
2008,12,04,16,06,4.40
2008,12,04,16,07,4.40
2008,12,04,16,08,4.40
2008,12,04,16,09,4.40
2008,12,04,16,10,4.40
2008,12,04,16,11,4.40
2008,12,04,16,12,4.40
2008,12,04,16,16,4.40
2008,12,04,16,17,4.40
2008,12,04,16,18,4.40
2008,12,04,16,19,4.40
2008,12,04,16,20,4.40
2008,12,04,16,21,4.40
2008,12,04,16,22,4.40
2008,12,04,16,23,4.40
2008,12,04,16,24,4.40
2008,12,04,16,25,4.40
2008,12,04,16,26,4.40
2008,12,04,16,27,4.40
2008,12,04,16,28,4.40
2008,12,04,16,29,4.40
2008,12,04,16,30,4.40
2008,12,04,16,31,4.40
2008,12,04,16,32,4.40
2008,12,04,16,33,4.40
2008,12,04,16,34,4.40
2008,12,04,16,35,4.40
2008,12,04,16,36,4.40
2008,12,04,16,37,4.40
2008,12,04,16,38,4.40
2008,12,04,16,39,4.40
2008,12,04,16,40,4.40
2008,12,04,16,41,4.40
2008,12,04,16,42,4.40
2008,12,04,16,43,4.40
2008,12,04,16,44,4.40
2008,12,04,16,45,4.40
2008,12,04,16,46,4.40
2008,12,04,16,47,4.40
2008,12,04,16,48,4.40
2008,12,04,16,49,4.40
2008,12,04,16,50,4.40
2008,12,04,16,51,4.40
2008,12,04,16,52,4.40
2008,12,04,16,53,4.40
2008,12,04,16,54,4.40
2008,12,04,16,55,4.40
2008,12,04,16,56,4.40
2008,12,04,16,57,4.40
2008,12,04,16,58,4.40
2008,12,04,16,59,4.40
2008,12,04,17,00,4.40
2008,12,04,17,01,4.40
2008,12,04,17,02,4.40
2008,12,04,17,03,4.40
2008,12,04,17,04,4.40
2008,12,04,17,05,4.40
2008,12,04,17,06,4.40
2008,12,04,17,07,4.40
2008,12,04,17,08,4.40
2008,12,04,17,09,4.40
2008,12,04,17,10,4.40
2008,12,04,17,11,4.40
2008,12,04,17,12,4.40
2008,12,04,17,13,4.40
2008,12,04,17,14,4.40
2008,12,04,17,15,4.40
2008,12,04,17,16,4.40
2008,12,04,17,17,4.40
2008,12,04,17,18,4.30
2008,12,04,17,19,4.30
2008,12,04,17,20,4.30
2008,12,04,17,21,4.30
2008,12,04,17,22,4.30
2008,12,04,17,23,4.30
2008,12,04,17,24,4.30
2008,12,04,17,25,4.30
2008,12,04,17,26,4.30
2008,12,04,17,27,4.30
2008,12,04,17,29,4.30
2008,12,04,17,30,4.30
2008,12,04,17,31,4.30
2008,12,04,17,32,4.30
2008,12,04,17,33,4.30
2008,12,04,17,34,4.30
2008,12,04,17,35,4.30
2008,12,04,17,36,4.30
2008,12,04,17,37,4.30
2008,12,04,17,38,4.30
2008,12,04,17,39,4.30
2008,12,04,17,40,4.30
2008,12,04,17,41,4.30
2008,12,04,17,42,4.30
2008,12,04,17,43,4.30
2008,12,04,17,44,4.30
2008,12,04,17,45,4.30
2008,12,04,17,46,4.30
2008,12,04,17,47,4.30
2008,12,04,17,48,4.30
2008,12,04,17,49,4.30
2008,12,04,17,50,4.30
2008,12,04,17,51,4.30
2008,12,04,17,52,4.30
2008,12,04,17,53,4.30
2008,12,04,17,54,4.30
2008,12,04,17,55,4.30
2008,12,04,17,56,4.30
2008,12,04,17,57,4.30
2008,12,04,17,58,4.30
2008,12,04,17,59,4.30
2008,12,04,18,00,4.30
2008,12,04,18,01,4.30
2008,12,04,18,02,4.30
2008,12,04,18,03,4.30
2008,12,04,18,04,4.30
2008,12,04,18,05,4.30
2008,12,04,18,06,4.30
2008,12,04,18,07,4.30
2008,12,04,18,08,4.30
2008,12,04,18,09,4.30
2008,12,04,18,10,4.30
2008,12,04,18,11,4.30
2008,12,04,18,12,4.30
2008,12,04,18,13,4.30
2008,12,04,18,14,4.30
2008,12,04,18,15,4.30
2008,12,04,18,16,4.30
2008,12,04,18,17,4.30
2008,12,04,18,18,4.30
2008,12,04,18,19,4.30
2008,12,04,18,20,4.30
2008,12,04,18,21,4.30
2008,12,04,18,22,4.30
2008,12,04,18,23,4.30
2008,12,04,18,24,4.30
2008,12,04,18,25,4.30
2008,12,04,18,26,4.30
2008,12,04,18,27,4.30
2008,12,04,18,28,4.30
2008,12,04,18,29,4.30
2008,12,04,18,30,4.30
2008,12,04,18,31,4.30
2008,12,04,18,32,4.30
2008,12,04,18,33,4.30
2008,12,04,18,34,4.30
2008,12,04,18,35,4.30
2008,12,04,18,36,4.30
2008,12,04,18,37,4.30
2008,12,04,18,38,4.30
2008,12,04,18,39,4.30
2008,12,04,18,40,4.30
2008,12,04,18,41,4.40
2008,12,04,18,42,4.40
2008,12,04,18,43,4.40
2008,12,04,18,44,4.40